STARLINK-32945, 63118

Orbit data source: Space-Track

STARLINK-32945, 63118 is a payload satellite owned by SpaceX/Seattle (US) in LEO that was launched on Thu, 27 Feb 2025 UTC via an FALCON 9 launch vehicle from the Air Force Eastern Test Range (AFETR). Payload-class satellites include a variety of spacecraft equipped with specific instruments for various scientific and technological missions. These include communications satellites like Starlink; space stations such as the ISS; scientific satellites like the Hubble; Earth observation satellites from companies like Planet Labs, Umbra, and HawkEye 360; GPS; miniature CubeSats for education and research; and military/defense satellites.

Loading next visibility...
Identifier
63118, 2025-039Q
Orbit
LEO
Country
Flag of USUS
Related business
Manufacturer
SpaceX/Seattle
Mission
Operational Commercial Communications
Bus & Motor
STARLINK V2M, Unknown motor
Mass
730 kg wet, ~700 kg dry
Launch date (UTC)
2025-02-27 (9 months ago)
Launch vehicle
FALCON 9
Launch site
Air Force Eastern Test Range (AFETR)
Object type
Payload
Rocket body
Debris
Shape & HBR
Box + 2 Pan, 17.7 m
Radar Cross Section
33.884 m², Large (>1 m²)

Expand to show TLE details & history
Last TLE update: 12 hours ago

TLE from 12 hours ago
0 STARLINK-32945
1 63118U 25039Q   25341.26572479  .00037991  00000-0  13820-2 0  9990
2 63118  43.0034 174.5825 0001924 265.9435  94.1196 15.27602699 43933
Epoch: 2025-12-07T06:22Z
TLE epoch observation values (Epoch: 2025-12-07T06:22:38.621Z)
Latitude
-0.00009°
Longitude
2.6399°
Altitude
482.852 km
Speed
7.626 km/s
True Right ascension
11h 38m 19s
True Declination
0° 00' 00"
Sunlit
Object was in daylight at epoch
Visualization orbit readout
Latitude
Unknown
Longitude
Unknown
Altitude
Unknown
Speed
Unknown
Apparent Right ascension
Unknown
Apparent Declination
Unknown
Sunlit
N/A
Visualization observer readout
Local Sidereal Time
16:44:24
Azimuth
Unknown
Elevation
Unknown
Doppler factor
Unknown
Orbital elements
Apogee altitude
486.246 km
Perigee altitude
483.605 km
Semi-major axis
6,863.063 km
Eccentricity
0.00019
Inclination
43.0034°
RAAN
174.5825°
Arg. of periapsis
265.9435°
True anomaly
94.14159°
Mean anomaly
94.1196°
Eccentric anomaly
94.1306°
Mean motion
3.81739 °/min
Orbital period
94.31 mins
BSTAR
0.001382
Loading maneuver chart data...
Computing Atmospheric mass density...
Loading historical data...
Loading historical data...
Loading historical data...
Loading historical data...
Loading historical data...
Loading historical data...
Loading historical data...

Documentation

Showing up to 5 results
|